Powrót do katalogu

SL-8 DEB *

AktywnyLEO
NORAD 13500·DEBRIS·🇷🇺 Russia

Wystrzelony Feb 17, 1978 z Plesetsk Cosmodrome

Loading…

Następne Przeloty (najbliższe 24 godziny)

TLE

ŚwieżeSource: Space-Track

Epoka: Sep 14, 2026, 09:13 UTC

1 13500U 78019C   26257.38442248  .00003141  00000-0  38134-3 0  9992
2 13500  74.0508 249.8175 0008833 323.4253  36.6321 14.83977117639912

Śledź SL-8 DEB * w czasie rzeczywistym z AllMySat

Download on the App Store